[[{"header":{"parameterUnit":"m.s-1","parameterCategory":2,"la1":30.2991,"la2":30.254,"lo1":-89.0895,"lo2":-89.0444,"dy":0.0017,"dx":0.0017,"nx":28,"ny":28,"refTime":"2024-11-24T09:00:00:Z","depth":"0","parameterNumber":2,"parameterNumberName":"U-component_of_CURRENTS"},"data":[0,0,0,0,0,0,0,0,0,0,0,0,0,0,0,0,0,0,0,0,0,0,0,0,0,0,0,0,0,0,0,0,0,0,0,0,0,0,0,0,0,0,0,0,0,0,0,0,0,0,0,0,0,0,0,0,0,0,0.3798,0.3799,0,0.3831,0.3831,0.3831,0.3854,0.3855,0.3855,0.3855,0.3765,0.3762,0.376,0,0,0,0,0,0,0,0,0,0,0,0,0,0.3707,0.3709,0.3798,0.3799,0.3799,0.3831,0.3831,0.3831,0.3854,0.3855,0.3855,0.3856,0.3766,0.3763,0.3759,0,0,0,0,0,0,0,0,0,0,0,0,0,0.3742,0.3709,0.3798,0.3816,0.3818,0.3831,0.3831,0.3831,0.3854,0.3855,0.3855,0.3856,0.3767,0.3763,0.3759,0.3723,0,0,0.3746,0.3745,0,0,0,0,0,0,0,0,0.374,0.3745,0.3813,0.3815,0.3817,0.3841,0.3766,0.379,0.3854,0.3839,0.3855,0.3856,0.378,0.3775,0.3779,0.3719,0.3715,0.3746,0.3744,0.3742,0.3741,0,0,0,0,0,0,0,0.3738,0.3744,0.3809,0.3813,0.3816,0.3806,0.3811,0.3771,0.3802,0.384,0.3842,0.3848,0.378,0.3783,0.3776,0.3714,0.3746,0.3743,0.374,0.3738,0.3682,0.3683,0,0,0,0,0,0,0.374,0.3742,0.3808,0.3811,0.3781,0.3807,0.3814,0.3831,0.3805,0.3804,0.3848,0.3849,0.379,0.3781,0.3773,0.3796,0.3742,0.3738,0.3736,0.3681,0.3682,0.3683,0,0,0,0,0,0,0.3738,0.3746,0.3807,0.3777,0.3785,0.3809,0.3828,0.3832,0.3834,0.3813,0.3809,0.3847,0.379,0.3779,0.3761,0.379,0.3736,0.3732,0.368,0.3681,0.3682,0.3799,0,0,0,0,0,0,0.3735,0.3745,0.3755,0.3778,0.3787,0.3803,0.3828,0.3832,0.3838,0.384,0.381,0.3803,0.3789,0.3767,0.3757,0.3784,0.3729,0.3678,0.368,0.3682,0.3794,0.3804,0.3813,0,0,0,0,0,0.3732,0.3752,0.3756,0.3764,0.3802,0.3803,0.3805,0.3823,0.3837,0.3828,0.3835,0.3804,0.3771,0.3765,0.3752,0.3778,0.3678,0.368,0.3682,0.3789,0.3802,0.3812,0,0,0,0,0,0,0.3721,0.3757,0.3762,0.3793,0.3789,0.3807,0.3813,0.3818,0.3818,0.3824,0.3808,0.3801,0.3813,0.3763,0.3756,0.3767,0.3721,0.3721,0.3807,0.3818,0.3827,0.3862,0.3726,0,0,0,0,0,0.3722,0.3746,0.376,0.3779,0.3782,0.3792,0.3797,0.3802,0.3808,0.381,0.38,0.3793,0.381,0.3787,0.3786,0.3761,0.3786,0.3771,0.3781,0.3789,0.3809,0.3887,0.3908,0.369,0.369,0.369,0,0,0.373,0.3746,0.3764,0.3777,0.3784,0.3789,0.3796,0.38,0.3815,0.3795,0.3814,0.3829,0.3817,0.3834,0.3829,0.379,0.3865,0.3792,0.38,0.3815,0.3892,0.3914,0.3933,0.3691,0.3691,0.3691,0,0,0.3747,0.3763,0.3784,0.3778,0.378,0.3784,0.3782,0.3794,0.381,0.3817,0.3846,0.3884,0.3848,0.3887,0.3893,0.3938,0.3933,0.3918,0.3971,0.4047,0.4067,0.4084,0.4158,0.4181,0.3899,0.3899,0.39,0,0.3742,0.3772,0.3784,0.3788,0.3793,0.3782,0.3792,0.3803,0.381,0.3831,0.3827,0.3891,0.389,0.3954,0.3999,0.3965,0.4003,0.3934,0.4065,0.4082,0.4099,0.417,0.4194,0.3905,0.3905,0.3904,0.3903,0,0.3766,0.3783,0.3789,0.3799,0.3807,0.3801,0.3819,0.3824,0.3841,0.3861,0.3927,0.3962,0.3994,0.4016,0.403,0.414,0.4131,0.4093,0.4047,0.4129,0.4197,0.422,0.3914,0.3912,0.391,0.3908,0,0,0.3753,0.3798,0.3793,0.3795,0.3807,0.3803,0.3842,0.3864,0.3875,0.3922,0.397,0.4069,0.4093,0.4107,0.4134,0.4218,0.4392,0.4212,0.4214,0.4306,0.4575,0.4454,0.4467,0.4382,0.4386,0.439,0.4584,0,0.3748,0.3764,0.38,0.3805,0.3809,0.3826,0.3851,0.3877,0.3899,0.3932,0.4021,0.4066,0.4119,0.4144,0.4252,0.4351,0.4456,0.4344,0.4464,0.4468,0.4367,0.449,0.4266,0.4409,0.4606,0.461,0.4613,0,0.3736,0.3751,0.3768,0.3796,0.38,0.3804,0.3826,0.3847,0.3905,0.393,0.4015,0.4062,0.422,0.423,0.4483,0.4408,0.4519,0.4601,0.4608,0.4472,0.4389,0.4353,0.4443,0.4247,0.4648,0.4645,0.4643,0,0.3685,0.3716,0.3726,0.3729,0.3766,0.3782,0.3799,0.3842,0.3852,0.3927,0.3943,0.4109,0.4178,0.4368,0.4536,0.4529,0.479,0.4776,0.4781,0.4773,0.4592,0.456,0.4519,0.4974,0.4973,0.4973,0.4972,0,0.3648,0.3652,0.3692,0.3686,0.368,0.3735,0.3729,0.376,0.3808,0.3814,0.3934,0.3981,0.4221,0.4373,0.4552,0.4728,0.48,0.4836,0.4828,0.4622,0.4592,0.4415,0.4355,0.498,0.4978,0.4977,0.4976,0,0.3592,0.3623,0.3614,0.3645,0.3652,0.3639,0.3667,0.3657,0.3715,0.3733,0.3763,0.3919,0.411,0.4319,0.4604,0.4706,0.4755,0.4934,0.4672,0.463,0.4436,0.4391,0.4322,0.4228,0.5006,0.5005,0.5003,0,0.3573,0.3557,0.3552,0.3531,0.3542,0.3539,0.3533,0.3595,0.3595,0.3687,0.3699,0.3868,0.3957,0.43,0.4512,0.4771,0.4666,0.4701,0.4652,0.4422,0.4369,0.4257,0.4175,0.4481,0.4475,0.4471,0.4467,0,0.3509,0.3488,0.3465,0.3424,0.3406,0.3395,0.3405,0.3393,0.3464,0.3492,0.3549,0.3626,0.3902,0.4028,0.4314,0.4477,0.4417,0.4614,0.445,0.4027,0.3832,0.3732,0.436,0.4426,0.443,0.4433,0.4436,0.4437,0.3429,0.338,0.3331,0.3282,0.3264,0.3241,0.3194,0.3222,0.3217,0.322,0.3365,0.339,0.3559,0.3926,0.4081,0.4087,0.4175,0.3996,0.3995,0.3927,0.3714,0.4246,0.4236,0.4239,0.4242,0.4244,0.4246,0,0.3323,0.3272,0.3204,0.3132,0.3067,0.3114,0.309,0.3025,0.2981,0.3027,0.3053,0.3066,0.3165,0.336,0.3511,0.3462,0.3429,0.3352,0.3132,0.3116,0.3644,0.3489,0.322,0.322,0.322,0.3221,0.3221,0.3221,0.3258,0.3164,0.3117,0.2959,0.2912,0.2807,0.2773,0.2705,0.2697,0.2595,0.2548,0.2598,0.2761,0.2862,0.2862,0.2865,0.2715,0.257,0.2638,0.2952,0.301,0.3066,0.29,0.2513,0.2513,0.1963,0.1959,0.1955]},{"header":{"parameterUnit":"m.s-1","parameterCategory":2,"la1":30.2991,"la2":30.254,"lo1":-89.0895,"lo2":-89.0444,"dy":0.0017,"dx":0.0017,"nx":28,"ny":28,"refTime":"2024-11-24T09:00:00:Z","depth":"0","parameterNumber":3,"parameterNumberName":"V-component_of_CURRENTS"},"data":[0,0,0,0,0,0,0,0,0,0,0,0,0,0,0,0,0,0,0,0,0,0,0,0,0,0,0,0,0,0,0,0,0,0,0,0,0,0,0,0,0,0,0,0,0,0,0,0,0,0,0,0,0,0,0,0,0,0,0.0264,0.0264,0,0.0278,0.0278,0.0278,0.0295,0.0295,0.0296,0.0296,0.0232,0.023,0.0229,0,0,0,0,0,0,0,0,0,0,0,0,0,0.036,0.0357,0.0264,0.0264,0.0264,0.0278,0.0278,0.0278,0.0295,0.0295,0.0296,0.0296,0.0233,0.0231,0.0228,0,0,0,0,0,0,0,0,0,0,0,0,0,0.0342,0.0357,0.0264,0.0272,0.0273,0.0277,0.0278,0.0278,0.0295,0.0295,0.0296,0.0296,0.0233,0.0231,0.0228,0.021,0,0,0.022,0.0219,0,0,0,0,0,0,0,0,0.0343,0.0339,0.0271,0.0272,0.0272,0.0283,0.0288,0.0251,0.0295,0.0289,0.0296,0.0296,0.024,0.0237,0.0244,0.0207,0.0205,0.022,0.0218,0.0217,0.0216,0,0,0,0,0,0,0,0.0344,0.0339,0.0272,0.0271,0.0272,0.0312,0.0309,0.0282,0.0264,0.029,0.0291,0.0288,0.024,0.0247,0.0242,0.0204,0.022,0.0218,0.0216,0.0215,0.0196,0.0198,0,0,0,0,0,0,0.0331,0.0339,0.0271,0.0272,0.0306,0.0309,0.0306,0.0281,0.0266,0.0264,0.0288,0.0289,0.0251,0.0245,0.024,0.0286,0.0217,0.0215,0.0213,0.0195,0.0197,0.0198,0,0,0,0,0,0,0.0333,0.0324,0.0271,0.0306,0.0302,0.0307,0.0279,0.0281,0.0287,0.0266,0.0263,0.0291,0.0251,0.0244,0.0239,0.0281,0.0214,0.0211,0.0194,0.0196,0.0197,0.0334,0,0,0,0,0,0,0.0335,0.0324,0.0317,0.0304,0.0299,0.0276,0.0279,0.0282,0.0284,0.0285,0.0266,0.0261,0.025,0.0244,0.0237,0.0276,0.0209,0.0193,0.0195,0.0197,0.0328,0.034,0.0351,0,0,0,0,0,0.0338,0.0332,0.0316,0.0309,0.0282,0.0275,0.0277,0.0284,0.0284,0.0289,0.0291,0.0262,0.0252,0.0243,0.0234,0.0274,0.0192,0.0194,0.0197,0.0323,0.0338,0.035,0,0,0,0,0,0,0.0381,0.0332,0.0314,0.0295,0.0283,0.0277,0.0287,0.0282,0.0289,0.0288,0.0272,0.0268,0.0283,0.0248,0.0238,0.0272,0.0217,0.0218,0.0316,0.033,0.0341,0.0377,0.0207,0,0,0,0,0,0.038,0.0358,0.0322,0.0311,0.0298,0.0288,0.029,0.0286,0.0283,0.0286,0.0281,0.0275,0.0286,0.0283,0.0274,0.0283,0.0261,0.0301,0.0312,0.0322,0.0345,0.0346,0.036,0.0206,0.0206,0.0206,0,0,0.0399,0.0367,0.0359,0.0319,0.0309,0.0321,0.0291,0.0285,0.0322,0.0275,0.0323,0.0307,0.0295,0.0326,0.0328,0.0303,0.0354,0.0325,0.0335,0.0352,0.035,0.0365,0.0379,0.0208,0.0207,0.0207,0,0,0.043,0.0386,0.038,0.0373,0.0346,0.0342,0.0337,0.0324,0.0341,0.0367,0.0362,0.038,0.0371,0.0399,0.0407,0.0464,0.0412,0.0442,0.0534,0.0535,0.0549,0.056,0.0557,0.0567,0.0451,0.0451,0.0451,0,0.0446,0.0436,0.0385,0.0388,0.0404,0.0354,0.038,0.0391,0.0392,0.0417,0.0395,0.0441,0.0424,0.0498,0.053,0.0496,0.0474,0.0491,0.0553,0.0564,0.0573,0.0567,0.0577,0.0458,0.0457,0.0456,0.0456,0,0.0474,0.0482,0.0482,0.047,0.0481,0.0488,0.0489,0.0504,0.0509,0.0525,0.058,0.0577,0.0605,0.0607,0.0593,0.066,0.0616,0.0568,0.0527,0.0598,0.0586,0.0594,0.0468,0.0465,0.0463,0.0461,0,0,0.0454,0.0492,0.0492,0.0523,0.0525,0.0534,0.0593,0.0628,0.067,0.0685,0.0761,0.08,0.0779,0.0787,0.0768,0.0783,0.0836,0.0712,0.0708,0.0725,0.0832,0.0785,0.0787,0.079,0.0792,0.0793,0.0799,0,0.0486,0.0533,0.0548,0.0622,0.0648,0.0655,0.0719,0.0751,0.0771,0.0825,0.0846,0.089,0.0853,0.0865,0.0884,0.0845,0.086,0.0839,0.0747,0.0746,0.0708,0.0796,0.0775,0.0777,0.0806,0.0807,0.0808,0,0.0491,0.0534,0.0608,0.0705,0.0715,0.076,0.0837,0.0887,0.0945,0.0962,0.101,0.1004,0.1065,0.0998,0.1006,0.0986,0.0929,0.0893,0.0891,0.0808,0.0713,0.0708,0.0788,0.0614,0.0819,0.0818,0.0817,0,0.0487,0.0573,0.0642,0.0671,0.0764,0.0813,0.0861,0.0923,0.0974,0.1041,0.1077,0.1124,0.1152,0.1112,0.1053,0.1021,0.1036,0.097,0.0881,0.0876,0.0823,0.081,0.0741,0.0969,0.0969,0.0969,0.0969,0,0.0502,0.0563,0.0646,0.0683,0.0773,0.0833,0.0918,0.0965,0.1045,0.1119,0.1141,0.1211,0.1177,0.1179,0.11,0.1033,0.1069,0.093,0.0889,0.0868,0.086,0.0674,0.0596,0.097,0.097,0.0969,0.0969,0,0.0494,0.0545,0.0626,0.0732,0.0767,0.0825,0.094,0.1002,0.1072,0.1173,0.1202,0.1282,0.129,0.1241,0.1184,0.1094,0.0946,0.0977,0.0959,0.0916,0.0655,0.0587,0.0541,0.0506,0.0889,0.0888,0.0888,0,0.0516,0.0545,0.0636,0.0683,0.0735,0.0828,0.0894,0.0991,0.1067,0.1221,0.1283,0.1338,0.1396,0.1314,0.1168,0.1041,0.0919,0.0909,0.085,0.0669,0.0563,0.0541,0.0513,0.0834,0.0833,0.0832,0.0831,0,0.0555,0.0555,0.0608,0.0688,0.0761,0.0859,0.097,0.1037,0.1171,0.1275,0.1428,0.1494,0.1427,0.1326,0.1141,0.1031,0.0806,0.0882,0.0707,0.0542,0.0505,0.044,0.0791,0.0823,0.0824,0.0824,0.0825,0.0825,0.057,0.0594,0.0635,0.0712,0.0792,0.0912,0.1005,0.114,0.1289,0.1491,0.1528,0.1647,0.1436,0.1201,0.105,0.0682,0.0724,0.054,0.0483,0.0485,0.0426,0.0761,0.0729,0.0729,0.0729,0.0729,0.073,0,0.0598,0.0618,0.0681,0.0774,0.0861,0.0912,0.1077,0.1194,0.1388,0.1556,0.1698,0.1623,0.1343,0.1052,0.0582,0.0332,0.0286,0.0166,0.0118,0.0118,0.0413,0.0379,0.0256,0.0256,0.0256,0.0257,0.0257,0.0257,0.061,0.0654,0.0677,0.0819,0.0898,0.1048,0.1152,0.1331,0.148,0.1679,0.1745,0.1787,0.1512,0.0616,0.0053,-0.0064,-0.021,-0.0257,-0.0316,-0.0172,-0.0142,-0.0114,-0.0166,-0.0402,-0.0403,-0.0572,-0.0575,-0.0577]}],[{"header":{"parameterUnit":"m.s-1","parameterCategory":2,"la1":30.2991,"la2":30.254,"lo1":-89.0895,"lo2":-89.0444,"dy":0.0017,"dx":0.0017,"nx":28,"ny":28,"refTime":"2024-11-24T09:00:00:Z","depth":"2","parameterNumber":2,"parameterNumberName":"U-component_of_CURRENTS"},"data":[0,0,0,0,0,0,0,0,0,0,0,0,0,0,0,0,0,0,0,0,0,0,0,0,0,0,0,0,0,0,0,0,0,0,0,0,0,0,0,0,0,0,0,0,0,0,0,0,0,0,0,0,0,0,0,0,0,0,0.1522,0.1521,0,0.142,0.1419,0.1417,0.1443,0.1446,0.1448,0.145,0.1755,0.176,0.1766,0,0,0,0,0,0,0,0,0,0,0,0,0,0.149,0.1492,0.1522,0.1521,0.152,0.142,0.1419,0.1417,0.1443,0.1446,0.1449,0.1451,0.1753,0.176,0.1767,0,0,0,0,0,0,0,0,0,0,0,0,0,0.1455,0.1492,0.1522,0.1523,0.1523,0.1421,0.1419,0.1417,0.1442,0.1446,0.1449,0.1452,0.175,0.1759,0.1768,0.1754,0,0,0.1795,0.1799,0,0,0,0,0,0,0,0,0.1457,0.1456,0.1524,0.1523,0.1522,0.1451,0.1519,0.1551,0.1441,0.1469,0.145,0.1454,0.169,0.1704,0.1667,0.1768,0.1781,0.1796,0.1801,0.1805,0.1808,0,0,0,0,0,0,0,0.146,0.1459,0.1479,0.1523,0.1522,0.1444,0.1445,0.1522,0.1567,0.1467,0.147,0.1462,0.1693,0.1658,0.1676,0.1786,0.1796,0.1804,0.1809,0.1813,0.2099,0.2101,0,0,0,0,0,0,0.1489,0.1463,0.1482,0.1476,0.1501,0.1443,0.1443,0.1468,0.1557,0.1572,0.1459,0.1464,0.1641,0.1665,0.1687,0.1902,0.1805,0.1814,0.1819,0.2096,0.2099,0.2102,0,0,0,0,0,0,0.1489,0.1492,0.1486,0.1467,0.1462,0.1442,0.1467,0.1464,0.1499,0.1547,0.157,0.1507,0.1644,0.1675,0.187,0.1907,0.1818,0.1826,0.2094,0.2097,0.21,0.2189,0,0,0,0,0,0,0.1489,0.1494,0.1512,0.1471,0.1464,0.1491,0.1464,0.1459,0.1486,0.1493,0.1595,0.1621,0.165,0.1857,0.1879,0.1917,0.1833,0.2091,0.2095,0.2099,0.2184,0.2195,0.2205,0,0,0,0,0,0.1488,0.1412,0.1514,0.1515,0.1494,0.1493,0.1484,0.1475,0.1486,0.1517,0.1626,0.1622,0.1896,0.1869,0.1894,0.1935,0.2089,0.2094,0.2099,0.2179,0.2193,0.2205,0,0,0,0,0,0,0.1403,0.1409,0.1518,0.1462,0.1548,0.1501,0.1472,0.151,0.1596,0.1659,0.1693,0.1729,0.1878,0.1912,0.188,0.2024,0.1974,0.1984,0.2025,0.204,0.205,0.1961,0.184,0,0,0,0,0,0.1411,0.1365,0.1453,0.1433,0.1477,0.1518,0.1512,0.1581,0.164,0.1677,0.1731,0.1818,0.1894,0.1985,0.2039,0.217,0.213,0.2197,0.2208,0.2217,0.2159,0.2191,0.2199,0.2118,0.2118,0.2118,0,0,0.1397,0.1372,0.1373,0.1415,0.1462,0.1492,0.1522,0.1586,0.1622,0.171,0.1766,0.1863,0.1933,0.2051,0.212,0.2113,0.2222,0.2223,0.2231,0.2166,0.2197,0.2205,0.2211,0.2121,0.2121,0.212,0,0,0.1273,0.1338,0.1285,0.1351,0.1462,0.1499,0.1551,0.1622,0.1679,0.1821,0.185,0.1996,0.2107,0.215,0.219,0.23,0.2257,0.2321,0.2342,0.2378,0.2384,0.2388,0.2351,0.2352,0.2355,0.2355,0.2355,0,0.1304,0.1236,0.1283,0.1269,0.1315,0.1511,0.1554,0.1608,0.1739,0.1807,0.1876,0.203,0.2126,0.2218,0.2262,0.232,0.2308,0.2297,0.239,0.2393,0.2396,0.2357,0.2356,0.236,0.2359,0.2359,0.2358,0,0.1163,0.1163,0.1132,0.1196,0.1252,0.1335,0.148,0.1585,0.1717,0.1795,0.1968,0.2107,0.2201,0.2258,0.2311,0.2375,0.2346,0.238,0.235,0.2409,0.2365,0.2363,0.2367,0.2365,0.2363,0.2362,0,0,0.1225,0.1071,0.1127,0.1135,0.1265,0.1321,0.1403,0.1555,0.1642,0.1822,0.1896,0.2072,0.2188,0.2232,0.2326,0.2381,0.2432,0.2405,0.2404,0.2351,0.246,0.233,0.2314,0.2502,0.2503,0.2503,0.2421,0,0.1204,0.1112,0.1059,0.1098,0.1102,0.1265,0.1305,0.1486,0.1654,0.1772,0.1969,0.2094,0.2163,0.2284,0.234,0.2419,0.2428,0.2446,0.2418,0.2414,0.2282,0.2308,0.221,0.2119,0.2418,0.2417,0.2417,0,0.1205,0.1106,0.1097,0.1052,0.1096,0.1143,0.1348,0.1419,0.1621,0.1763,0.193,0.2067,0.2202,0.2261,0.2354,0.2373,0.2389,0.2425,0.2425,0.225,0.2279,0.2109,0.2102,0.2411,0.2412,0.2412,0.2413,0,0.1277,0.1197,0.1176,0.1187,0.1155,0.1211,0.1266,0.1454,0.1549,0.1769,0.19,0.2049,0.2188,0.223,0.2354,0.2365,0.2413,0.2446,0.23,0.229,0.216,0.2137,0.2424,0.2425,0.2425,0.2425,0.2425,0,0.1254,0.125,0.1211,0.1198,0.1242,0.1244,0.1351,0.1456,0.1596,0.1726,0.1906,0.2041,0.2197,0.2283,0.232,0.2303,0.2391,0.2251,0.2258,0.2189,0.217,0.2388,0.2385,0.2422,0.2423,0.2423,0.2424,0,0.1257,0.1232,0.123,0.1239,0.1245,0.1323,0.136,0.1421,0.1584,0.1751,0.183,0.2046,0.2167,0.2253,0.2336,0.227,0.2268,0.2222,0.2091,0.2081,0.2105,0.2108,0.2007,0.2002,0.1997,0.1994,0.199,0,0.1217,0.1197,0.1321,0.1354,0.1331,0.138,0.1393,0.1459,0.1516,0.1765,0.1838,0.2014,0.2106,0.2133,0.2104,0.2049,0.2175,0.1877,0.1854,0.2042,0.2062,0.2072,0.2081,0.1728,0.1723,0.1719,0.1715,0,0.11,0.1233,0.1235,0.1374,0.1412,0.1387,0.1402,0.1446,0.1558,0.1696,0.1889,0.1966,0.1991,0.1919,0.1814,0.1772,0.1878,0.178,0.2059,0.1839,0.177,0.1793,0.1812,0.1679,0.1682,0.1685,0.1687,0.1689,0.1145,0.1178,0.1297,0.1409,0.1429,0.1423,0.1437,0.1468,0.1561,0.1782,0.179,0.185,0.1798,0.1592,0.1537,0.1501,0.1569,0.1516,0.1533,0.1554,0.1526,0.1453,0.1293,0.1294,0.1295,0.1296,0.1297,0,0.1188,0.1195,0.1284,0.1419,0.1415,0.1453,0.1454,0.145,0.1593,0.169,0.1788,0.1524,0.1403,0.1412,0.1274,0.116,0.1196,0.1149,0.1245,0.1279,0.131,0.1276,0.0973,0.0973,0.0972,0.0971,0,0,0.1203,0.125,0.1289,0.1355,0.1447,0.1457,0.1487,0.1526,0.1539,0.1561,0.1564,0.15,0.1383,0.1207,0.1123,0.1071,0.1187,0.1026,0.1283,0.1437,0.1468,0.1506,0.1487,0,0,0,0,0]},{"header":{"parameterUnit":"m.s-1","parameterCategory":2,"la1":30.2991,"la2":30.254,"lo1":-89.0895,"lo2":-89.0444,"dy":0.0017,"dx":0.0017,"nx":28,"ny":28,"refTime":"2024-11-24T09:00:00:Z","depth":"2","parameterNumber":3,"parameterNumberName":"V-component_of_CURRENTS"},"data":[0,0,0,0,0,0,0,0,0,0,0,0,0,0,0,0,0,0,0,0,0,0,0,0,0,0,0,0,0,0,0,0,0,0,0,0,0,0,0,0,0,0,0,0,0,0,0,0,0,0,0,0,0,0,0,0,0,0,-0.0344,-0.0345,0,-0.0339,-0.0338,-0.0338,-0.0343,-0.0344,-0.0345,-0.0346,-0.0364,-0.0364,-0.0363,0,0,0,0,0,0,0,0,0,0,0,0,0,-0.0178,-0.0182,-0.0344,-0.0345,-0.0345,-0.0339,-0.0338,-0.0338,-0.0343,-0.0344,-0.0345,-0.0346,-0.0364,-0.0364,-0.0363,0,0,0,0,0,0,0,0,0,0,0,0,0,-0.0212,-0.0183,-0.0344,-0.0353,-0.0354,-0.0339,-0.0338,-0.0337,-0.0343,-0.0344,-0.0345,-0.0347,-0.0364,-0.0364,-0.0363,-0.0333,0,0,-0.0362,-0.0361,0,0,0,0,0,0,0,0,-0.0211,-0.0218,-0.0351,-0.0352,-0.0354,-0.035,-0.0287,-0.034,-0.0342,-0.0339,-0.0346,-0.0347,-0.0365,-0.0365,-0.035,-0.0334,-0.0334,-0.0362,-0.0361,-0.0361,-0.0361,0,0,0,0,0,0,0,-0.0209,-0.0217,-0.0334,-0.0352,-0.0353,-0.0296,-0.0303,-0.0295,-0.0339,-0.0339,-0.0342,-0.0353,-0.0366,-0.035,-0.035,-0.0335,-0.0362,-0.0361,-0.0361,-0.0361,-0.0323,-0.0322,0,0,0,0,0,0,-0.0233,-0.0216,-0.0335,-0.0335,-0.0293,-0.0299,-0.0307,-0.0343,-0.0339,-0.0341,-0.0352,-0.0353,-0.035,-0.0351,-0.0351,-0.0348,-0.0361,-0.0361,-0.036,-0.0323,-0.0323,-0.0322,0,0,0,0,0,0,-0.023,-0.0245,-0.0335,-0.0279,-0.0288,-0.0303,-0.0342,-0.0343,-0.0344,-0.0349,-0.0351,-0.0355,-0.0351,-0.0352,-0.0333,-0.0348,-0.036,-0.036,-0.0324,-0.0323,-0.0322,-0.032,0,0,0,0,0,0,-0.0226,-0.0244,-0.0259,-0.0282,-0.0292,-0.033,-0.0342,-0.0342,-0.0351,-0.0353,-0.0353,-0.0355,-0.0352,-0.0334,-0.0333,-0.0347,-0.0359,-0.0325,-0.0324,-0.0323,-0.0321,-0.032,-0.0318,0,0,0,0,0,-0.022,-0.0235,-0.026,-0.0273,-0.032,-0.033,-0.0328,-0.0336,-0.0351,-0.0342,-0.0333,-0.0356,-0.0326,-0.0332,-0.0331,-0.0346,-0.0326,-0.0324,-0.0323,-0.0322,-0.032,-0.0318,0,0,0,0,0,0,-0.0164,-0.0239,-0.0266,-0.0304,-0.0322,-0.0334,-0.0328,-0.0341,-0.0325,-0.0327,-0.0334,-0.0333,-0.0328,-0.0327,-0.0333,-0.0329,-0.0335,-0.0333,-0.0335,-0.0333,-0.0331,-0.0317,-0.0359,0,0,0,0,0,-0.0165,-0.0198,-0.0253,-0.0276,-0.0295,-0.0314,-0.0316,-0.0325,-0.0326,-0.0322,-0.0328,-0.0325,-0.0316,-0.0317,-0.0308,-0.0297,-0.0303,-0.0308,-0.0307,-0.0305,-0.0291,-0.0316,-0.0316,-0.0317,-0.0317,-0.0317,0,0,-0.0153,-0.0192,-0.0214,-0.0265,-0.0282,-0.0283,-0.0316,-0.0324,-0.0314,-0.0325,-0.0309,-0.0318,-0.031,-0.0298,-0.0297,-0.0302,-0.0306,-0.0303,-0.0302,-0.0289,-0.0315,-0.0315,-0.0315,-0.0316,-0.0316,-0.0316,0,0,-0.0122,-0.0184,-0.0195,-0.0211,-0.0243,-0.0255,-0.0266,-0.0293,-0.0298,-0.0287,-0.0293,-0.0297,-0.0295,-0.0284,-0.0279,-0.0258,-0.0295,-0.0279,-0.0261,-0.0286,-0.0286,-0.0287,-0.0289,-0.029,-0.028,-0.028,-0.028,0,-0.0106,-0.0125,-0.019,-0.0191,-0.0188,-0.0248,-0.0231,-0.0245,-0.0255,-0.024,-0.0284,-0.0267,-0.0281,-0.0244,-0.0254,-0.0255,-0.0275,-0.0274,-0.0285,-0.0286,-0.0287,-0.0289,-0.029,-0.0279,-0.0279,-0.0279,-0.028,0,-0.0083,-0.0083,-0.0087,-0.0116,-0.0121,-0.0114,-0.0157,-0.0158,-0.0188,-0.0196,-0.019,-0.0216,-0.0196,-0.0229,-0.0243,-0.0248,-0.0262,-0.0283,-0.0296,-0.0287,-0.0289,-0.029,-0.0279,-0.0279,-0.0279,-0.0279,0,0,-0.0096,-0.0073,-0.0077,-0.0038,-0.0074,-0.0065,-0.0063,-0.0054,-0.0019,-0.0086,-0.0039,-0.0092,-0.0123,-0.0119,-0.0154,-0.0205,-0.0246,-0.0261,-0.0262,-0.0269,-0.0299,-0.0306,-0.0308,-0.0291,-0.0291,-0.0291,-0.0297,0,-0.0053,0.0,-0.0012,0.0055,0.0084,0.0054,0.0078,0.0076,0.0061,0.0087,0.0018,0.0042,-0.0077,-0.0067,-0.0143,-0.0194,-0.025,-0.0241,-0.0298,-0.0299,-0.0314,-0.031,-0.0304,-0.031,-0.0298,-0.0298,-0.0298,0,-0.0045,0.0011,0.008,0.0184,0.0188,0.0212,0.0266,0.0283,0.0285,0.0276,0.0249,0.0208,0.0158,0.0041,-0.0087,-0.0085,-0.0197,-0.0274,-0.0276,-0.0282,-0.0309,-0.0316,-0.0312,-0.03,-0.03,-0.0299,-0.0299,0,-0.0018,0.0076,0.0153,0.0172,0.025,0.0289,0.0324,0.034,0.0381,0.0401,0.044,0.0361,0.0349,0.0183,0.0004,-0.0043,-0.0147,-0.0208,-0.032,-0.032,-0.032,-0.0321,-0.0318,-0.0318,-0.0318,-0.0318,-0.0318,0,0.0019,0.0092,0.0182,0.0217,0.0334,0.0356,0.0455,0.0478,0.053,0.0604,0.0537,0.0579,0.0368,0.0283,0.0079,-0.0105,-0.0082,-0.0306,-0.0324,-0.0318,-0.0318,-0.0314,-0.0313,-0.0318,-0.0318,-0.0318,-0.0318,0,0.003,0.0079,0.0181,0.0292,0.0337,0.0405,0.0527,0.0606,0.0648,0.0744,0.0761,0.0747,0.0642,0.0436,0.0218,0.003,-0.0155,-0.0235,-0.0201,-0.0217,-0.0333,-0.0332,-0.0347,-0.0347,-0.0348,-0.0348,-0.0348,0,0.0055,0.0104,0.0213,0.0278,0.0332,0.045,0.0535,0.0626,0.0719,0.0844,0.0906,0.0873,0.0821,0.0538,0.0237,-0.0064,-0.0127,-0.0244,-0.0344,-0.032,-0.0337,-0.0335,-0.0334,-0.0338,-0.0338,-0.0338,-0.0339,0,0.0124,0.0127,0.0194,0.031,0.041,0.0549,0.0688,0.078,0.09,0.1009,0.1138,0.1116,0.0862,0.0569,0.0179,-0.0025,-0.0195,-0.0256,-0.0224,-0.0334,-0.0314,-0.0329,-0.0328,-0.0339,-0.0339,-0.0339,-0.0339,-0.0339,0.0151,0.0205,0.0263,0.0372,0.048,0.0638,0.0761,0.0926,0.1094,0.1262,0.1221,0.1164,0.0843,0.0312,0.0066,-0.0172,-0.0219,-0.0356,-0.0355,-0.0355,-0.0355,-0.0337,-0.0365,-0.0365,-0.0365,-0.0365,-0.0365,0,0.0212,0.0264,0.0359,0.0485,0.0595,0.0649,0.0865,0.1,0.121,0.1285,0.1333,0.0962,0.0627,0.0327,-0.0046,-0.0299,-0.0309,-0.0345,-0.0331,-0.0331,-0.0331,-0.0329,-0.0333,-0.0333,-0.0332,-0.0332,0,0,0.0254,0.0341,0.0389,0.0569,0.0651,0.0831,0.0949,0.1149,0.1234,0.1321,0.1253,0.1033,0.0615,0.0336,0.0029,-0.0132,-0.0161,-0.0153,-0.0169,-0.0118,-0.0113,-0.0344,-0.0342,0,0,0,0,0]}],[{"header":{"parameterUnit":"m.s-1","parameterCategory":2,"la1":30.2991,"la2":30.254,"lo1":-89.0895,"lo2":-89.0444,"dy":0.0017,"dx":0.0017,"nx":28,"ny":28,"refTime":"2024-11-24T09:00:00:Z","depth":"4","parameterNumber":2,"parameterNumberName":"U-component_of_CURRENTS"},"data":[0,0,0,0,0,0,0,0,0,0,0,0,0,0,0,0,0,0,0,0,0,0,0,0,0,0,0,0,0,0,0,0,0,0,0,0,0,0,0,0,0,0,0,0,0,0,0,0,0,0,0,0,0,0,0,0,0,0,-0.0113,-0.0112,0,-0.0086,-0.0086,-0.0085,-0.0049,-0.0049,-0.0049,-0.0048,-0.0088,-0.0089,-0.0091,0,0,0,0,0,0,0,0,0,0,0,0,0,-0.0109,-0.011,-0.0113,-0.0112,-0.0112,-0.0087,-0.0086,-0.0085,-0.005,-0.0049,-0.0049,-0.0048,-0.0088,-0.0089,-0.0091,0,0,0,0,0,0,0,0,0,0,0,0,0,-0.0097,-0.011,-0.0113,-0.0093,-0.0092,-0.0087,-0.0086,-0.0085,-0.005,-0.0049,-0.0049,-0.0048,-0.0087,-0.0089,-0.0091,-0.0115,0,0,-0.0097,-0.0098,0,0,0,0,0,0,0,0,-0.0098,-0.0097,-0.0096,-0.0095,-0.0093,-0.0073,-0.0099,-0.0099,-0.005,-0.0063,-0.0048,-0.0048,-0.0091,-0.0093,-0.0084,-0.0117,-0.0118,-0.0098,-0.0099,-0.01,-0.01,0,0,0,0,0,0,0,-0.0099,-0.0098,-0.0099,-0.0096,-0.0094,-0.0079,-0.0076,-0.0099,-0.008,-0.0062,-0.006,-0.0061,-0.009,-0.0082,-0.0085,-0.0119,-0.0098,-0.0099,-0.0101,-0.0102,-0.0141,-0.0141,0,0,0,0,0,0,-0.0109,-0.0099,-0.01,-0.0099,-0.0097,-0.008,-0.0077,-0.0078,-0.0078,-0.0077,-0.0062,-0.006,-0.0079,-0.0083,-0.0087,-0.008,-0.01,-0.0102,-0.0103,-0.0142,-0.0141,-0.0141,0,0,0,0,0,0,-0.0109,-0.011,-0.0101,-0.01,-0.0099,-0.0081,-0.0082,-0.0078,-0.0055,-0.0078,-0.0078,-0.0042,-0.0079,-0.0084,-0.0097,-0.0083,-0.0103,-0.0105,-0.0142,-0.0141,-0.0141,-0.0091,0,0,0,0,0,0,-0.0109,-0.011,-0.0103,-0.0101,-0.0099,-0.0084,-0.0082,-0.0078,-0.0059,-0.0056,-0.0062,-0.0065,-0.0079,-0.0093,-0.0099,-0.0086,-0.0106,-0.0142,-0.0142,-0.0141,-0.0093,-0.0089,-0.0085,0,0,0,0,0,-0.0109,-0.0101,-0.0102,-0.0102,-0.0094,-0.0084,-0.008,-0.0064,-0.0059,-0.0043,-0.0054,-0.0064,-0.0095,-0.0095,-0.0101,-0.0089,-0.0142,-0.0142,-0.0141,-0.0094,-0.009,-0.0086,0,0,0,0,0,0,-0.01,-0.0097,-0.0098,-0.009,-0.0083,-0.0078,-0.0062,-0.0057,-0.005,-0.0048,-0.0067,-0.0071,-0.0076,-0.0094,-0.0094,-0.01,-0.0119,-0.012,-0.0081,-0.0077,-0.0073,-0.0056,-0.0108,0,0,0,0,0,-0.0097,-0.0086,-0.0086,-0.008,-0.0075,-0.0068,-0.0058,-0.0051,-0.0051,-0.0045,-0.0054,-0.0068,-0.0082,-0.0087,-0.0103,-0.0111,-0.0114,-0.0107,-0.0103,-0.01,-0.0091,-0.0084,-0.0078,-0.014,-0.014,-0.014,0,0,-0.0101,-0.0091,-0.009,-0.0077,-0.0069,-0.0053,-0.0059,-0.0042,-0.0028,-0.0056,-0.0039,-0.0058,-0.0082,-0.0085,-0.0089,-0.0096,-0.0084,-0.0099,-0.0096,-0.0089,-0.0083,-0.0077,-0.0071,-0.0139,-0.0139,-0.0139,0,0,-0.0093,-0.0085,-0.007,-0.0057,-0.004,-0.0034,-0.0028,-0.0019,-0.0009,-0.0007,-0.0021,-0.0027,-0.0051,-0.0056,-0.0066,-0.0055,-0.0066,-0.0064,-0.003,-0.0023,-0.0017,-0.0013,-0.0003,0.0003,-0.006,-0.006,-0.006,0,-0.0095,-0.0074,-0.0065,-0.004,-0.0026,-0.0024,-0.0004,0.0005,0.0008,0.0013,0.0004,-0.0014,-0.0033,-0.0032,-0.0026,-0.0044,-0.0044,-0.0042,-0.0016,-0.0012,-0.0008,0.0001,0.0006,-0.0057,-0.0058,-0.0058,-0.0058,0,-0.0077,-0.0051,-0.0038,-0.0006,0.001,0.0029,0.0037,0.0052,0.0055,0.0058,0.006,0.0036,0.0028,0.002,-0.0001,0.0017,0.0007,-0.0012,-0.0023,0.0002,0.0009,0.0014,-0.0054,-0.0055,-0.0055,-0.0056,0,0,-0.0108,-0.0039,-0.0036,-0.0003,0.0032,0.0047,0.0071,0.0091,0.0109,0.0107,0.0126,0.0105,0.0096,0.0085,0.0061,0.0065,0.0093,0.0042,0.0041,0.0061,0.0113,0.0123,0.0129,0.0079,0.008,0.0081,0.0109,0,-0.0096,-0.004,-0.0012,0.004,0.0072,0.0092,0.0114,0.0134,0.0141,0.0158,0.0144,0.0147,0.012,0.0116,0.0119,0.0096,0.0107,0.0088,0.0079,0.0079,0.0092,0.0135,0.0084,0.0112,0.0113,0.0114,0.0115,0,-0.009,-0.0044,0.0007,0.008,0.0093,0.0124,0.0166,0.0185,0.0206,0.0208,0.0216,0.0203,0.0211,0.0179,0.0178,0.0167,0.0149,0.0133,0.0133,0.0129,0.0097,0.0079,0.0123,0.0122,0.0121,0.0121,0.012,0,-0.011,-0.0033,0.0014,0.0038,0.0112,0.0142,0.0176,0.0205,0.0226,0.0247,0.0261,0.0262,0.0268,0.025,0.021,0.0202,0.0201,0.0186,0.0181,0.0181,0.014,0.0134,0.0193,0.0193,0.0193,0.0193,0.0192,0,-0.0104,-0.0066,0.0017,0.0047,0.0107,0.0153,0.0205,0.0227,0.0265,0.028,0.0291,0.0284,0.0287,0.0276,0.0237,0.0225,0.0225,0.0205,0.0197,0.016,0.0156,0.0144,0.0138,0.0194,0.0193,0.0193,0.0193,0,-0.0129,-0.0079,-0.0021,0.0067,0.0105,0.0141,0.0234,0.0263,0.0297,0.0317,0.0327,0.033,0.0312,0.0301,0.0273,0.0271,0.0244,0.0231,0.0201,0.0187,0.0219,0.0215,0.0267,0.0268,0.0268,0.0269,0.0269,0,-0.0135,-0.0104,-0.0015,0.0026,0.0076,0.0152,0.0203,0.0267,0.0286,0.0313,0.0307,0.0323,0.0309,0.0304,0.0271,0.0252,0.0233,0.0257,0.0245,0.0244,0.023,0.0225,0.022,0.027,0.0271,0.0271,0.0271,0,-0.0147,-0.0125,-0.0086,0.0004,0.0072,0.0149,0.0219,0.0239,0.0284,0.0318,0.0314,0.0324,0.0312,0.0296,0.0298,0.0258,0.027,0.0263,0.0262,0.0251,0.0248,0.0233,0.0228,0.0273,0.0273,0.0273,0.0272,0,-0.0172,-0.0165,-0.0111,-0.003,0.0054,0.013,0.0176,0.0227,0.0269,0.0304,0.0279,0.0278,0.0289,0.0293,0.0256,0.0269,0.0273,0.0298,0.0295,0.0293,0.0286,0.0284,0.0331,0,0,0,0,0,-0.019,-0.0182,-0.013,-0.0042,0.0045,0.0105,0.0179,0.0214,0.025,0.026,0.0288,0.0264,0.0276,0.0257,0.0273,0.0243,0.0253,0.0264,0.0276,0.0285,0.0283,0.0271,0,0,0,0,0,0,-0.0205,-0.0181,-0.0156,-0.0055,0.0008,0.0108,0.0155,0.0183,0.0196,0.0226,0.0222,0.0273,0.026,0.0256,0.0267,0.0269,0.0285,0.0272,0.0274,0.0287,0.0284,0.0282,0.0269,0,0,0,0,0]},{"header":{"parameterUnit":"m.s-1","parameterCategory":2,"la1":30.2991,"la2":30.254,"lo1":-89.0895,"lo2":-89.0444,"dy":0.0017,"dx":0.0017,"nx":28,"ny":28,"refTime":"2024-11-24T09:00:00:Z","depth":"4","parameterNumber":3,"parameterNumberName":"V-component_of_CURRENTS"},"data":[0,0,0,0,0,0,0,0,0,0,0,0,0,0,0,0,0,0,0,0,0,0,0,0,0,0,0,0,0,0,0,0,0,0,0,0,0,0,0,0,0,0,0,0,0,0,0,0,0,0,0,0,0,0,0,0,0,0,0.0324,0.0323,0,0.0251,0.025,0.0249,0.0183,0.0183,0.0182,0.0181,-0.001,-0.0014,-0.0019,0,0,0,0,0,0,0,0,0,0,0,0,0,0.0349,0.0349,0.0324,0.0323,0.0322,0.0251,0.025,0.0249,0.0183,0.0183,0.0182,0.0181,-0.0009,-0.0014,-0.0019,0,0,0,0,0,0,0,0,0,0,0,0,0,0.0313,0.0349,0.0324,0.0281,0.0277,0.0251,0.025,0.0248,0.0184,0.0183,0.0181,0.0181,-0.0007,-0.0013,-0.002,-0.004,0,0,-0.004,-0.0043,0,0,0,0,0,0,0,0,0.0315,0.0312,0.0288,0.0284,0.0279,0.0226,0.0188,0.0146,0.0184,0.0218,0.0181,0.018,0.0059,0.0047,0.0036,-0.0049,-0.0057,-0.0041,-0.0045,-0.0048,-0.005,0,0,0,0,0,0,0,0.0318,0.0314,0.0294,0.0288,0.0282,0.0246,0.0241,0.018,0.0143,0.0215,0.021,0.0204,0.0055,0.0043,0.0031,-0.006,-0.0041,-0.0047,-0.0051,-0.0053,-0.0253,-0.0254,0,0,0,0,0,0,0.0332,0.0317,0.0296,0.0292,0.0296,0.0247,0.024,0.0243,0.0146,0.0131,0.0205,0.0201,0.0055,0.0039,0.0024,-0.0067,-0.0048,-0.0054,-0.0058,-0.0251,-0.0253,-0.0254,0,0,0,0,0,0,0.0333,0.0332,0.0299,0.0302,0.0296,0.0248,0.0252,0.0242,0.0206,0.0139,0.0122,0.0176,0.0053,0.0033,-0.0047,-0.0073,-0.0057,-0.0063,-0.025,-0.0252,-0.0254,-0.021,0,0,0,0,0,0,0.0335,0.0333,0.0339,0.0304,0.0296,0.0282,0.0252,0.0242,0.0206,0.0199,0.0109,0.0092,0.0051,-0.0037,-0.0054,-0.0082,-0.0068,-0.0248,-0.0251,-0.0253,-0.021,-0.021,-0.0211,0,0,0,0,0,0.0336,0.0343,0.034,0.0338,0.0308,0.0283,0.0275,0.0237,0.0205,0.0198,0.0127,0.0093,-0.0065,-0.0043,-0.0062,-0.0093,-0.0247,-0.025,-0.0253,-0.021,-0.021,-0.0211,0,0,0,0,0,0,0.0339,0.0336,0.0332,0.0334,0.0313,0.0272,0.026,0.0227,0.0168,0.0146,0.0079,0.0057,-0.0019,-0.0066,-0.004,-0.0159,-0.0163,-0.017,-0.0123,-0.0125,-0.0125,-0.0125,-0.0074,0,0,0,0,0,0.0351,0.0366,0.0345,0.0345,0.0337,0.0295,0.0277,0.0246,0.0192,0.0164,0.0101,0.0023,-0.0042,-0.009,-0.0147,-0.0217,-0.0235,-0.0252,-0.0252,-0.0252,-0.0267,-0.03,-0.0304,-0.0264,-0.0264,-0.0264,0,0,0.0353,0.0352,0.036,0.0349,0.0328,0.0306,0.0281,0.0247,0.0209,0.015,0.0074,0.0023,-0.0059,-0.0128,-0.0168,-0.0175,-0.027,-0.0256,-0.0255,-0.027,-0.0303,-0.0307,-0.031,-0.0266,-0.0266,-0.0265,0,0,0.0354,0.0363,0.0371,0.0357,0.0329,0.0304,0.0291,0.0241,0.0202,0.0134,0.008,0.0015,-0.0091,-0.0145,-0.0189,-0.0232,-0.0262,-0.026,-0.0275,-0.0306,-0.0309,-0.0311,-0.0314,-0.0317,-0.027,-0.027,-0.0269,0,0.0352,0.0358,0.0365,0.0355,0.0332,0.0301,0.0274,0.0239,0.0162,0.0118,0.0109,-0.0044,-0.0098,-0.0195,-0.0207,-0.0232,-0.0248,-0.0259,-0.0303,-0.0307,-0.031,-0.0312,-0.0317,-0.0268,-0.0268,-0.0268,-0.0268,0,0.0347,0.0351,0.0348,0.0336,0.0314,0.0287,0.0244,0.0203,0.0151,0.0105,0.0007,-0.0055,-0.0152,-0.0173,-0.0207,-0.0275,-0.0274,-0.0285,-0.0291,-0.0311,-0.0312,-0.0318,-0.0265,-0.0266,-0.0266,-0.0267,0,0,0.0337,0.0346,0.0343,0.0331,0.0295,0.027,0.0216,0.0151,0.0095,0.0035,-0.0042,-0.0133,-0.0167,-0.022,-0.0265,-0.0295,-0.0313,-0.0306,-0.0308,-0.029,-0.0366,-0.034,-0.0343,-0.033,-0.0332,-0.0333,-0.0345,0,0.0321,0.0315,0.0311,0.0278,0.0262,0.0221,0.0172,0.0107,0.0049,-0.0022,-0.0092,-0.0171,-0.0187,-0.0234,-0.0266,-0.0314,-0.0331,-0.0308,-0.0367,-0.0369,-0.0329,-0.035,-0.0337,-0.0349,-0.035,-0.0351,-0.0352,0,0.0305,0.0303,0.0281,0.0243,0.0228,0.0198,0.0106,0.0057,-0.0035,-0.0083,-0.0161,-0.021,-0.0287,-0.0278,-0.0358,-0.0345,-0.0356,-0.0371,-0.0372,-0.0373,-0.0355,-0.0337,-0.0362,-0.0361,-0.036,-0.036,-0.0359,0,0.0286,0.0272,0.0253,0.0242,0.0199,0.0159,0.0118,0.0031,-0.0018,-0.0119,-0.0157,-0.0255,-0.0302,-0.0345,-0.0375,-0.0376,-0.043,-0.0435,-0.0415,-0.0412,-0.0447,-0.0444,-0.0471,-0.0471,-0.0471,-0.0471,-0.0471,0,0.0259,0.0246,0.0248,0.0232,0.0186,0.0149,0.0079,0.0021,-0.0054,-0.0106,-0.0185,-0.0234,-0.032,-0.036,-0.0384,-0.0414,-0.0438,-0.0425,-0.0424,-0.0425,-0.042,-0.0448,-0.0445,-0.0472,-0.0471,-0.0471,-0.0471,0,0.0237,0.0245,0.0228,0.0195,0.0182,0.0143,0.0084,0.0036,-0.0034,-0.0098,-0.0127,-0.0225,-0.0285,-0.0338,-0.0403,-0.0418,-0.045,-0.0443,-0.0422,-0.0418,-0.0406,-0.0401,-0.0445,-0.0445,-0.0444,-0.0444,-0.0444,0,0.0218,0.0215,0.021,0.0202,0.0188,0.0144,0.0111,0.0045,0.0008,-0.0084,-0.0109,-0.0187,-0.0246,-0.0315,-0.0375,-0.0422,-0.0419,-0.0433,-0.0446,-0.0415,-0.0409,-0.0405,-0.0401,-0.0443,-0.0443,-0.0442,-0.0442,0,0.0175,0.0192,0.0185,0.0187,0.0167,0.0142,0.01,0.0075,0.0003,-0.0032,-0.0101,-0.0165,-0.0226,-0.0303,-0.0334,-0.0366,-0.0437,-0.0429,-0.043,-0.0442,-0.0412,-0.0406,-0.0402,-0.0441,-0.0441,-0.0441,-0.0441,0,0.0145,0.0145,0.0157,0.0158,0.0153,0.013,0.0104,0.0065,0.0025,-0.0054,-0.0065,-0.015,-0.02,-0.0271,-0.03,-0.0337,-0.0352,-0.0367,-0.0372,-0.0374,-0.0353,-0.0304,-0.0307,0,0,0,0,0,0.0104,0.0115,0.0119,0.0119,0.0128,0.013,0.0094,0.0069,0.0031,-0.0005,-0.0038,-0.009,-0.0176,-0.0227,-0.0257,-0.0297,-0.0361,-0.0335,-0.038,-0.0431,-0.0433,-0.0419,0,0,0,0,0,0,0.0076,0.0082,0.0111,0.0106,0.0112,0.0104,0.0089,0.0058,0.0033,-0.0003,-0.0047,-0.0075,-0.0155,-0.0137,-0.0244,-0.0261,-0.0292,-0.0374,-0.0374,-0.043,-0.0432,-0.0434,-0.042,0,0,0,0,0]}]]